Skip Page Navigation
NASA JPL Caltech
NASA Logo - Jet Propulsion Laboratory + View the NASA Portal
+ Center for Near-Earth Object Studies
JPL Home Earth Solar System Stars & Galaxies Technology
JPL Solar System Dynamics
BODIES ORBITS EPHEMERIDES TOOLS PHYSICAL DATA DISCOVERY FAQ SITE MAP
JPL Small-Body Database Browser
Search: [ help ]  
134367 (1995 OY7)
Classification: Main-belt Asteroid          SPK-ID: 2134367
Ephemeris | Orbit Diagram | Orbital Elements | Mission Design | Physical Parameters | Discovery Circumstances | Close-Approach Data ]

[ show orbit diagram ]
Orbital Elements at Epoch 2459200.5 (2020-Dec-17.0) TDB
Reference: JPL 22 (heliocentric ecliptic J2000)
 Element Value Uncertainty (1-sigma)   Units 
e .02998093800737003 4.7457e-08  
a 3.103396343953894 2.4843e-08 au
q 3.010353610553513 1.5195e-07 au
i 8.881603872989167 4.5106e-06 deg
node 273.5020685028539 3.4944e-05 deg
peri 335.5089969848958 0.00010931 deg
M 292.7071304788649 0.00010604 deg
tp 2459573.768069260948
(2021-Dec-25.26806926)
0.00058879 TDB
period 1996.890694217412
5.47
2.3978e-05
6.565e-08
d
yr
n .1802802732480484 2.1648e-09 deg/d
Q 3.196439077354275 2.5588e-08 au
  Orbit Determination Parameters
   # obs. used (total)      427  
   data-arc span      9398 days (25.73 yr)  
   first obs. used      1995-07-25  
   last obs. used      2021-04-17  
   planetary ephem.      DE441  
   SB-pert. ephem.      SB441-N16  
   condition code      0  
   norm. resid. RMS      .59699  
   source      ORB  
   producer      Otto Matic  
   solution date      2021-May-04 09:19:43  

Additional Information
 Earth MOID = 1.99596 au 
 Jupiter MOID = 1.87504 au 
 T_jup = 3.202 
[ show covariance matrix ]

Ephemeris | Orbit Diagram | Orbital Elements | Mission Design | Physical Parameters | Discovery Circumstances | Close-Approach Data ]

Physical Parameter Table
Parameter Symbol Value Units Sigma Reference Notes
absolute magnitude H 15.07   n/a E2021B55  

134367 (1995 OY7)          Discovered 1995-Jul-25 by Spacewatch at Kitt Peak
Reference: 20060907/Numbers.arcLast Updated: 2006-09-10

[ show close-approach data ]
Alternate Designations
 1995 OY7 = 2001 SL321 
Ephemeris | Orbit Diagram | Orbital Elements | Mission Design | Physical Parameters | Discovery Circumstances | Close-Approach Data ]
ABOUT SSD CREDITS/AWARDS PRIVACY/COPYRIGHT GLOSSARY LINKS
FirstGov 2021-May-06 11:09 UT
(server date/time)  
NASA Home Page
Site Manager:   Ryan S. Park
Webmaster  Alan B. Chamberlin